Location: Buch
(49.7331°N, 12.1098°E)
Time: 16:09:46
(UTC+00:00)

Spot 4 - Pass Details

Date: 12 May 2021
Orbit: 703 x 724 km, 98.3° (Epoch: 18 June)

Event Time Altitude Azimuth Distance (km) Brightness Sun altitude
Exits shadow 22:42:01 39° 224° (SW) 1,080 4.4 -21.6°
Maximum altitude 22:43:08 46° 261° (W) 970 4.4 -21.7°
Drops below altitude 10° 22:47:50 10° 335° (NNW) 2,222 7.4 -21.7°
Sets 22:50:12 0° 341° (NNW) 3,146 8.5 -21.8°
